Presure
121 139 178 177 131 176 213 199 201 190 191 191 172 197 197 198 197 201 200 190 186 192 189 165 194 171 191 195 186 187 178 180 178 174 179 176 172 174 174 176 174 84 83
147 130 145 133 128 126 127 129 192 159 190 194 204 197 197 199 202 205 201 175 198 202 186 163 173 192 220 175 179 111 180 127 171 153 178 176 169 84 171 166 81 81 94
162 118 136 184 147 125 135 135 163 167 197 203 201 199 195 195 206 193 189 186 212 189 181 203 189 209 162 160 223 204 192 160 172 161 185 163 171 178 161 135 138 166 170
130 128 176 194 143 205 128 131 140 136 170 186 181 210 206 200 196 201 199 202 199 207 201 204 205 218 170 170 156 173 182 173 174 152 209 93 181 186 182 177 182 174 173
199 202 214 214 135 192 147 133 139 209 148 128 194 130 206 211 205 154 202 204 202 210 201 192 186 211 211 214 197 203 203 215 218 91 215 212 200 167 163 164 221 170 172
206 216 200 227 209 212 184 142 163 198 185 139 140 204 132 151 175 193 206 198 207 201 204 186 195 198 199 196 134 207 208 201 210 198 216 217 217 207 216 209 218 216 209
208 200 206 203 203 197 201 210 209 209 138 202 130 206 185 144 203 191 194 204 200 183 188 193 195 191 195 193 179 199 167 207 194 214 199 200 203 197 193 187 200 198 192
211 209 208 197 201 204 229 226 200 189 203 229 210 184 211 220 158 138 160 196 216 182 183 186 208 195 184 211 194 204 224 191 190 172 169 214 190 185 178 178 213 194 189
214 209 204 201 206 206 194 205 195 226 235 213 212 192 201 192 184 197 186 203 185 177 171 180 180 228 183 176 139 144 182 191 190 150 205 183 180 197 191 162 222 235 190
215 216 206 200 200 201 225 202 190 222 235 191 186 196 199 198 195 184 196 195 195 193 192 194 183 182 189 187 196 188 190 180 181 198 197 188 194 189 186 180 175 216 218
221 209 215 206 208 189 223 197 208 204 193 192 193 193 196 198 201 193 180 190 182 191 177 181 190 193 181 167 181 183 174 175 178 169 179 184 195 197 216 217 207 179 194
234 222 213 217 207 210 190 223 246 190 195 198 193 197 197 187 201 196 201 199 200 198 196 184 189 170 196 194 189 205 193 196 196 187 190 173 193 173 180 174 184 190 199
230 236 209 216 220 208 185 210 189 195 202 196 191 197 198 196 200 194 185 185 187 186 178 176 186 182 177 179 191 162 186 193 167 183 189 210 176 200 200 192 192 200 179
271 250 224 226 214 218 202 192 197 200 205 202 205 203 196 205 200 199 196 194 191 193 194 198 195 197 200 185 184 182 161 183 198 197 165 200 202 189 202 200 201 205 201
227 241 259 269 257 220 227 209 207 212 211 222 224 222 219 212 209 208 203 199 202 195 194 193 192 174 192 186 175 171 198 178 194 205 202 200 217 208 205 199 196 216 195
255 223 221 225 244 260 270 274 223 219 226 205 206 232 224 219 216 214 215 207 209 204 201 192 198 191 183 196 186 186 187 183 192 198 192 195 203 200 197 192 211 217 200
218 206 229 227 229 224 229 240 249 255 263 267 270 236 216 208 221 221 226 218 221 218 195 195 200 195 190 190 192 195 195 193 192 200 192 197 189 193 200 201 214 216 202
212 234 194 178 251 234 228 234 229 221 229 237 244 254 259 269 277 270 258 220 212 208 218 213 211 204 200 202 202 198 197 198 198 197 198 198 198 205 199 213 201 205 181
234 233 236 211 216 219 218 252 226 228 242 236 215 219 225 231 243 245 251 261 278 293 376 234 225 216 212 206 216 198 202 201 199 204 203 216 206 206 197 203 197 207 202
223 248 242 257 248 237 208 210 236 224 240 229 238 240 241 251 216 213 215 217 226 241 252 274 333 372 356 238 223 216 213 212 203 203 203 195 203 213 214 197 205 209 202
234 239 238 234 250 233 233 256 269 228 254 231 235 253 245 233 238 254 259 231 216 222 225 233 230 241 273 342 333 318 292 256 238 226 223 217 219 217 227 215 218 217 236
252 255 259 254 254 248 244 257 270 270 260 253 245 267 269 262 237 229 235 247 250 248 242 157 227 218 227 223 248 325 318 317 312 321 313 305 297 298 248 258 244 239 257
271 265 267 265 262 251 280 281 270 266 265 258 248 250 256 256 258 243 246 242 232 238 236 239 243 244 247 247 237 234 228 215 237 265 276 280 279 276 277 271 265 264 262
297 283 297 295 293 275 272 273 276 270 263 271 257 254 242 250 247 249 246 242 243 241 234 234 234 234 236 244 246 247 243 233 231 232 234 234 231 231 231 232 237 241 238
308 308 317 311 316 302 297 294 280 279 267 261 261 251 253 251 244 248 252 250 240 232 231 235 234 234 234 232 230 231 232 242 245 242 244 246 246 238 228 227 231 238 248
340 320 324 341 323 336 339 344 326 297 287 272 265 256 246 255 254 251 249 249 245 237 238 242 240 236 234 231 230 232 238 236 233 233 232 229 230 228 241 247 246 242 242
Wind_Speed
46 42 54 71 38 54 73 75 74 74 73 73 69 71 68 69 68 68 67 66 66 68 68 62 65 65 65 65 65 63 65 65 66 67 67 66 66 66 67 68 68 45 46
49 41 48 43 43 44 44 41 75 54 73 71 71 71 70 68 67 66 68 68 70 70 69 66 68 67 63 66 64 52 67 51 68 64 69 69 71 39 69 71 44 46 61
66 50 45 67 56 48 47 45 55 61 74 72 70 71 71 70 67 68 67 67 63 66 71 67 68 63 68 67 61 65 67 70 70 72 71 73 73 72 73 64 66 77 79
45 56 68 84 60 61 49 52 54 54 62 71 73 72 72 70 72 67 69 68 71 65 69 65 66 61 71 69 72 69 68 71 73 74 72 41 74 73 76 79 79 79 81
88 94 87 99 65 73 66 54 53 76 61 59 73 60 69 71 71 65 70 68 70 65 67 68 72 62 63 62 70 67 68 65 65 50 70 73 77 81 84 87 74 84 85
88 102 84 79 80 77 71 66 62 74 72 65 67 74 66 62 64 68 72 73 70 69 67 74 72 70 70 70 54 67 67 70 67 72 72 71 70 71 67 73 71 70 74
91 74 74 83 82 83 82 83 79 72 65 74 44 77 74 72 71 70 72 73 70 71 73 73 74 72 74 74 72 72 77 72 75 73 72 73 71 74 76 82 77 77 80
88 91 92 81 86 90 79 84 80 71 81 80 80 71 77 79 68 74 70 73 73 72 73 72 72 74 72 75 76 75 75 72 77 82 84 83 78 81 87 86 84 82 86
97 85 86 88 93 95 77 87 81 74 67 69 73 75 77 72 72 76 75 77 76 73 70 73 73 72 75 75 79 81 76 78 77 83 81 82 88 82 82 86 86 87 88
97 103 87 84 83 88 102 89 80 96 77 80 81 87 83 80 75 67 79 79 78 81 79 80 82 75 75 73 78 80 81 78 82 87 86 89 92 94 89 88 95 96 92
102 93 100 95 99 75 95 81 84 87 84 86 88 87 92 90 89 84 76 83 75 82 72 77 82 82 75 82 80 82 85 87 87 94 92 94 96 95 99 98 94 96 94
96 101 99 104 100 96 77 97 96 81 86 89 90 96 95 78 94 96 95 92 90 90 90 78 81 82 92 89 87 93 93 97 102 98 95 98 101 98 98 99 99 96 100
88 95 87 101 105 100 76 97 84 91 97 93 92 100 100 98 100 95 84 86 89 87 80 79 86 85 84 85 91 97 96 102 100 104 102 111 97 104 104 101 104 109 104
41 82 93 91 99 104 98 88 98 102 105 99 110 113 101 112 103 102 97 98 97 101 102 102 97 100 100 91 94 94 104 104 108 109 101 110 111 106 111 109 114 119 113
44 43 41 45 78 103 106 108 113 121 114 119 118 117 116 116 114 111 109 107 105 103 107 100 99 91 100 95 97 102 106 107 110 117 115 113 117 124 118 118 112 122 112
32 49 53 54 53 52 52 62 118 114 115 103 104 110 112 115 115 116 115 108 109 105 114 102 106 97 98 106 102 101 107 106 113 118 114 114 121 122 118 111 128 127 126
47 55 49 54 59 64 64 63 63 64 66 71 84 103 107 105 110 111 113 113 114 113 108 103 107 107 106 108 108 111 114 115 117 122 117 123 110 117 125 128 139 135 129
61 51 68 69 50 61 64 67 70 73 73 72 72 73 74 73 75 95 99 113 111 110 114 114 112 110 112 114 117 117 119 118 121 120 127 130 124 127 132 141 131 136 102
59 58 61 68 66 65 66 59 72 73 70 77 80 79 78 79 79 80 79 76 68 65 74 119 119 118 117 118 124 116 121 122 122 128 128 134 131 137 121 131 125 140 129
63 78 72 72 64 64 76 76 70 74 72 77 77 78 78 76 84 83 84 83 82 80 78 68 63 69 78 122 124 125 128 130 120 125 128 112 128 141 147 118 137 142 122
74 74 71 64 73 69 70 71 76 78 71 76 76 72 78 82 80 76 76 84 87 87 85 83 82 78 68 68 78 92 107 129 137 135 134 135 137 137 144 140 143 144 159
93 93 90 82 82 80 75 74 77 79 73 71 72 67 71 71 81 83 81 78 77 80 83 67 88 88 85 83 76 74 78 92 88 80 74 81 92 87 142 126 145 151 135
98 100 98 95 91 81 88 83 79 79 79 73 73 72 72 70 74 77 77 80 83 81 81 81 80 81 81 82 84 83 83 86 81 74 71 72 76 81 83 86 92 97 99
95 92 99 97 94 96 94 88 87 86 83 82 77 76 75 76 74 76 77 79 81 83 84 85 86 85 84 81 81 81 84 87 89 89 89 88 89 91 93 96 98 100 101
96 97 99 96 96 98 96 97 94 93 88 84 83 79 81 81 77 77 78 80 82 85 87 87 88 87 88 88 87 86 86 86 89 92 92 91 90 91 93 96 99 101 103
96 94 95 98 94 97 95 94 95 97 97 92 90 87 83 85 89 86 84 81 81 84 87 90 91 91 92 92 91 91 90 91 92 93 90 91 93 96 99 99 99 100 101
Wind_Direction
240 248 239 233 240 236 229 232 232 236 238 242 248 244 247 249 252 255 256 258 259 262 264 262 267 265 269 268 268 269 271 272 273 274 277 278 278 278 281 283 283 282 282
242 240 254 248 239 240 241 246 234 245 239 241 243 247 249 252 254 255 255 256 259 261 264 262 265 267 273 268 268 274 268 271 273 276 276 277 279 274 279 279 275 277 282
226 247 257 230 251 240 252 252 246 244 240 242 243 247 249 251 253 254 257 259 263 262 263 264 267 270 266 265 276 274 272 270 272 276 276 277 277 278 279 278 278 280 281
224 243 241 233 252 233 240 247 254 244 248 248 248 245 246 248 251 253 254 255 258 259 262 265 267 270 269 269 269 270 272 270 271 270 280 275 275 277 278 278 278 280 281
229 228 229 233 244 237 248 246 249 236 257 249 245 251 245 248 249 260 252 252 256 257 262 266 269 268 269 272 273 275 276 276 277 275 281 282 282 273 276 277 285 277 279
231 224 238 223 235 229 253 252 247 241 248 250 253 246 253 258 259 253 251 257 256 260 261 268 268 269 271 274 274 275 275 278 277 278 278 279 281 282 285 285 290 288 288
230 241 235 241 243 249 250 246 245 253 248 246 241 245 248 256 255 258 260 256 261 266 267 268 269 273 274 276 273 276 273 276 278 281 278 278 278 279 280 280 285 286 285
234 236 237 246 244 247 236 237 253 260 257 244 250 262 249 252 257 257 258 264 258 264 270 274 269 277 274 275 275 278 277 281 282 273 275 281 277 275 277 280 284 284 284
235 243 244 244 245 247 257 246 260 247 240 248 251 265 263 265 263 264 266 261 266 265 264 271 273 271 274 273 274 276 278 281 282 278 285 276 275 277 279 282 292 284 283
235 237 242 248 249 250 244 248 259 247 240 262 265 266 268 269 267 266 268 268 268 269 271 271 271 273 278 279 280 281 279 276 278 285 281 280 282 285 275 276 278 297 290
233 242 241 246 246 251 246 261 251 254 261 263 263 267 269 268 267 268 263 270 265 270 263 269 273 276 273 268 276 278 271 272 273 277 283 278 284 284 288 285 294 290 282
235 237 240 241 246 247 248 252 237 255 259 259 262 265 266 262 268 272 271 272 273 273 273 269 275 260 280 281 281 282 282 282 284 278 278 277 280 282 278 283 279 282 286
240 241 243 244 243 247 246 246 252 256 258 258 259 264 265 266 266 265 263 265 269 269 258 256 272 269 266 271 278 271 278 281 276 275 280 289 287 288 291 291 286 294 288
243 244 243 244 245 246 247 252 252 254 257 256 257 256 257 260 261 264 265 264 265 267 267 268 269 270 271 272 273 275 273 278 281 279 283 288 284 285 292 293 294 297 296
245 245 244 247 249 244 245 245 248 251 253 255 255 254 253 255 258 257 258 261 262 263 267 266 268 263 271 270 266 269 277 273 282 282 284 287 286 287 291 292 294 294 298
272 250 250 250 249 246 247 252 247 251 253 250 250 252 252 254 255 257 258 257 257 258 260 265 267 267 268 272 270 275 276 276 280 282 282 285 287 289 290 292 293 292 297
246 254 252 253 255 254 253 252 252 254 257 258 260 255 254 255 254 254 255 256 258 258 260 261 261 265 268 270 271 271 272 276 279 278 283 284 288 288 289 291 289 289 294
248 263 249 258 265 253 253 255 255 257 259 258 259 259 260 261 261 262 261 258 258 260 259 261 260 260 263 264 266 269 271 272 275 278 278 281 284 283 288 286 292 291 292
278 269 271 249 253 262 253 265 252 252 253 256 258 259 260 261 261 263 264 265 265 264 258 259 259 260 261 263 259 269 269 270 273 273 275 275 279 281 285 285 291 288 293
267 280 280 279 272 263 254 253 257 254 256 254 256 256 258 261 260 263 264 265 265 265 267 266 262 257 257 259 260 260 263 265 272 272 275 281 279 277 279 287 285 287 292
278 277 275 270 275 263 262 274 269 257 262 255 257 257 255 259 261 261 259 262 265 266 266 266 266 268 267 254 254 259 258 261 263 267 267 271 274 275 274 279 282 282 281
283 283 281 278 279 270 270 274 269 265 263 260 259 262 262 255 255 260 262 261 261 263 266 266 268 268 269 269 271 259 260 263 271 275 274 272 275 278 275 276 276 280 282
273 275 275 277 277 276 269 266 267 267 264 262 260 261 259 259 257 253 256 258 262 263 264 265 267 269 270 271 272 272 271 273 273 274 274 273 274 276 278 279 282 285 287
269 267 266 266 261 266 266 265 260 263 262 258 258 259 253 257 256 256 255 257 257 258 261 263 265 267 269 271 272 273 275 276 276 277 278 281 282 284 286 287 287 288 289
271 270 269 267 264 262 258 255 258 255 259 258 255 256 256 257 255 257 258 257 258 258 260 261 263 265 266 268 270 271 272 273 274 275 278 280 281 283 286 287 289 289 292
273 272 270 267 265 263 262 258 253 251 249 252 253 253 254 254 256 258 258 256 257 257 260 261 262 263 266 267 269 270 271 272 274 276 279 282 284 285 285 288 291 294 299